• In Uzbekistan
  • List of Countries
  • For 7 days
  • Water Temperature
  • Satellite Maps
  • Weather Map
  • Weather Widgets
  • user-avatar
    Login

    Hourly Weather Mafeteng

    Today, 21 February, Wednesday

    Time Temperature Precipitation Wind Pressure Humidity
    00:00 +20°C° 0 mm 2 mps 627 mmHg 45%
    01:00 +19°C° 0 mm 2 mps 627 mmHg 47%
    02:00 +19°C° 0 mm 1 mps 627 mmHg 49%
    03:00 +19°C° 0 mm 1 mps 627 mmHg 52%
    04:00 +18°C° 0 mm 1 mps 626 mmHg 55%
    05:00 +18°C° 0 mm 1 mps 626 mmHg 58%
    06:00 +19°C° 0 mm 1 mps 627 mmHg 54%
    07:00 +21°C° 0 mm 1 mps 628 mmHg 49%
    08:00 +23°C° 0 mm 1 mps 629 mmHg 45%
    09:00 +25°C° 0 mm 1 mps 629 mmHg 40%
    10:00 +26°C° 0 mm 1 mps 629 mmHg 35%
    11:00 +28°C° 0 mm 1 mps 630 mmHg 30%
    12:00 +29°C° 0 mm 2 mps 629 mmHg 28%
    13:00 +30°C° 0 mm 3 mps 629 mmHg 25%
    14:00 +31°C° 0 mm 3 mps 629 mmHg 22%
    15:00 +30°C° 0 mm 3 mps 628 mmHg 23%
    16:00 +30°C° 0 mm 4 mps 628 mmHg 24%
    17:00 +29°C° 0 mm 4 mps 628 mmHg 26%
    18:00 +27°C° 0 mm 3 mps 627 mmHg 30%
    19:00 +25°C° 0 mm 3 mps 627 mmHg 35%
    20:00 +23°C° 0 mm 2 mps 627 mmHg 40%
    21:00 +23°C° 0 mm 2 mps 627 mmHg 44%
    22:00 +21°C° 0 mm 2 mps 627 mmHg 48%
    23:00 +20°C° 0 mm 3 mps 627 mmHg 52%

    Tomorrow, 22 February, Thursday

    Time Temperature Precipitation Wind Pressure Humidity
    00:00 +19°C° 0 mm 2 mps 627 mmHg 59%
    01:00 +18°C° 0 mm 2 mps 626 mmHg 66%
    02:00 +18°C° 0 mm 1 mps 626 mmHg 73%
    03:00 +18°C° 0 mm 1 mps 626 mmHg 76%
    04:00 +16°C° 0 mm 1 mps 626 mmHg 79%
    05:00 +16°C° 0 mm 1 mps 625 mmHg 82%
    06:00 +18°C° 0 mm 1 mps 626 mmHg 75%
    07:00 +19°C° 0 mm 1 mps 627 mmHg 69%
    08:00 +21°C° 0 mm 1 mps 628 mmHg 62%
    09:00 +23°C° 0 mm 2 mps 628 mmHg 56%
    10:00 +25°C° 0 mm 3 mps 628 mmHg 50%
    11:00 +26°C° 0 mm 3 mps 628 mmHg 43%
    12:00 +27°C° 0 mm 3 mps 628 mmHg 39%
    13:00 +28°C° 0 mm 4 mps 628 mmHg 35%
    14:00 +29°C° 0 mm 4 mps 627 mmHg 31%
    15:00 +29°C° 0 mm 3 mps 627 mmHg 32%
    16:00 +29°C° 0 mm 3 mps 627 mmHg 33%
    17:00 +28°C° 0 mm 2 mps 626 mmHg 33%
    18:00 +26°C° 0.1 mm 2 mps 626 mmHg 39%
    19:00 +25°C° 0.1 mm 2 mps 626 mmHg 44%
    20:00 +23°C° 0.1 mm 1 mps 625 mmHg 49%
    21:00 +21°C° 0.2 mm 2 mps 625 mmHg 54%
    22:00 +20°C° 0.2 mm 3 mps 625 mmHg 59%
    23:00 +19°C° 0.2 mm 3 mps 625 mmHg 63%

    Day after tomorrow, 23 February, Friday

    Time Temperature Precipitation Wind Pressure Humidity
    00:00 +19°C° 0.1 mm 3 mps 625 mmHg 67%
    01:00 +18°C° 0.1 mm 3 mps 625 mmHg 70%
    02:00 +17°C° 0.1 mm 3 mps 624 mmHg 74%
    03:00 +17°C° 0.1 mm 2 mps 624 mmHg 76%
    04:00 +16°C° 0.1 mm 2 mps 624 mmHg 78%
    05:00 +16°C° 0.1 mm 1 mps 624 mmHg 80%
    06:00 +17°C° 0 mm 2 mps 624 mmHg 74%
    07:00 +19°C° 0 mm 2 mps 625 mmHg 69%
    08:00 +20°C° 0 mm 2 mps 626 mmHg 63%
    09:00 +21°C° 0 mm 3 mps 626 mmHg 58%
    10:00 +24°C° 0 mm 3 mps 626 mmHg 52%
    11:00 +26°C° 0 mm 3 mps 626 mmHg 47%
    12:00 +26°C° 0 mm 3 mps 626 mmHg 44%
    13:00 +27°C° 0 mm 4 mps 625 mmHg 41%
    14:00 +28°C° 0 mm 4 mps 625 mmHg 38%
    15:00 +28°C° 0 mm 4 mps 625 mmHg 37%
    16:00 +28°C° 0 mm 3 mps 624 mmHg 37%
    17:00 +28°C° 0 mm 3 mps 624 mmHg 36%
    18:00 +26°C° 0 mm 2 mps 624 mmHg 40%
    19:00 +25°C° 0 mm 2 mps 623 mmHg 44%
    20:00 +23°C° 0 mm 2 mps 623 mmHg 48%
    21:00 +21°C° 0 mm 2 mps 623 mmHg 51%
    22:00 +21°C° 0 mm 2 mps 623 mmHg 53%
    23:00 +20°C° 0 mm 2 mps 623 mmHg 55%

    24 February, Saturday

    Time Temperature Precipitation Wind Pressure Humidity
    00:00 +19°C° 0 mm 2 mps 623 mmHg 58%
    01:00 +18°C° 0 mm 2 mps 622 mmHg 61%
    02:00 +18°C° 0 mm 2 mps 622 mmHg 64%
    03:00 +17°C° 0 mm 2 mps 622 mmHg 67%
    04:00 +17°C° 0 mm 2 mps 622 mmHg 69%
    05:00 +16°C° 0 mm 2 mps 622 mmHg 72%
    06:00 +18°C° 0 mm 3 mps 622 mmHg 69%
    07:00 +19°C° 0 mm 3 mps 623 mmHg 67%
    08:00 +20°C° 0 mm 4 mps 624 mmHg 64%
    09:00 +21°C° 0.4 mm 4 mps 624 mmHg 59%
    10:00 +23°C° 0.4 mm 4 mps 624 mmHg 54%
    11:00 +26°C° 0.4 mm 4 mps 625 mmHg 49%
    12:00 +26°C° 0.2 mm 4 mps 624 mmHg 46%
    13:00 +27°C° 0.2 mm 5 mps 624 mmHg 44%
    14:00 +27°C° 0.2 mm 5 mps 623 mmHg 42%
    15:00 +27°C° 0.1 mm 5 mps 623 mmHg 42%
    16:00 +27°C° 0.1 mm 5 mps 623 mmHg 43%
    17:00 +27°C° 0.1 mm 5 mps 623 mmHg 43%
    18:00 +25°C° 1 mm 5 mps 622 mmHg 51%
    19:00 +21°C° 1 mm 5 mps 622 mmHg 59%
    20:00 +19°C° 1 mm 5 mps 622 mmHg 68%
    21:00 +19°C° 1.9 mm 4 mps 622 mmHg 72%
    22:00 +18°C° 1.9 mm 3 mps 622 mmHg 76%
    23:00 +17°C° 1.9 mm 2 mps 622 mmHg 80%

    25 February, Sunday

    Time Temperature Precipitation Wind Pressure Humidity
    00:00 +17°C° 0.5 mm 2 mps 622 mmHg 81%
    01:00 +17°C° 0.5 mm 2 mps 622 mmHg 82%
    02:00 +17°C° 0.5 mm 2 mps 622 mmHg 83%
    03:00 +17°C° 0.5 mm 2 mps 622 mmHg 84%
    04:00 +16°C° 0.5 mm 2 mps 622 mmHg 84%
    05:00 +16°C° 0.5 mm 1 mps 622 mmHg 84%
    06:00 +18°C° 0 mm 1 mps 623 mmHg 79%
    07:00 +18°C° 0 mm 1 mps 623 mmHg 74%
    08:00 +17°C° 0 mm 0 mps 624 mmHg 68%
    09:00 +20°C° 0.1 mm 1 mps 625 mmHg 62%
    10:00 +21°C° 0.1 mm 2 mps 625 mmHg 56%
    11:00 +22°C° 0.1 mm 3 mps 625 mmHg 49%
    12:00 +23°C° 0.1 mm 4 mps 625 mmHg 46%
    13:00 +23°C° 0.1 mm 4 mps 625 mmHg 42%
    14:00 +25°C° 0.1 mm 5 mps 625 mmHg 39%
    15:00 +23°C° 0 mm 5 mps 625 mmHg 41%
    16:00 +22°C° 0 mm 6 mps 625 mmHg 42%
    17:00 +22°C° 0 mm 7 mps 625 mmHg 44%
    18:00 +19°C° 0 mm 6 mps 625 mmHg 50%
    19:00 +16°C° 0 mm 5 mps 625 mmHg 56%
    20:00 +14°C° 0 mm 4 mps 625 mmHg 62%
    21:00 +13°C° 0 mm 4 mps 625 mmHg 64%
    22:00 +13°C° 0 mm 3 mps 625 mmHg 66%
    23:00 +12°C° 0 mm 3 mps 625 mmHg 67%

    26 February, Monday

    Time Temperature Precipitation Wind Pressure Humidity
    00:00 +11°C° 0 mm 3 mps 625 mmHg 69%
    01:00 +12°C° 0 mm 2 mps 625 mmHg 71%
    02:00 +10°C° 0 mm 2 mps 624 mmHg 72%
    03:00 +10°C° 0 mm 2 mps 625 mmHg 73%
    04:00 +9°C° 0 mm 2 mps 625 mmHg 73%
    05:00 +10°C° 0 mm 1 mps 625 mmHg 73%
    06:00 +11°C° 0 mm 1 mps 626 mmHg 69%
    07:00 +13°C° 0 mm 1 mps 626 mmHg 65%
    08:00 +14°C° 0 mm 1 mps 627 mmHg 60%
    09:00 +16°C° 0 mm 1 mps 628 mmHg 56%
    10:00 +19°C° 0 mm 1 mps 628 mmHg 52%
    11:00 +21°C° 0 mm 1 mps 628 mmHg 48%
    12:00 +22°C° 0 mm 1 mps 628 mmHg 46%
    13:00 +21°C° 0 mm 2 mps 627 mmHg 43%
    14:00 +23°C° 0 mm 2 mps 627 mmHg 41%
    15:00 +23°C° 0 mm 2 mps 627 mmHg 39%
    16:00 +24°C° 0 mm 2 mps 627 mmHg 38%
    17:00 +24°C° 0 mm 2 mps 627 mmHg 37%
    18:00 +22°C° 0 mm 1 mps 627 mmHg 42%
    19:00 +20°C° 0 mm 1 mps 626 mmHg 47%
    20:00 +19°C° 0 mm 1 mps 626 mmHg 52%
    21:00 +18°C° 0 mm 1 mps 626 mmHg 53%
    22:00 +18°C° 0 mm 1 mps 627 mmHg 55%
    23:00 +16°C° 0 mm 1 mps 627 mmHg 57%
    Show more